This demonstration page uses our WeatherBlox Daily Observations layout. Learn more.

Left ArrowRight Arrow

36.19886, -115.1175

Hourly Observations for February 10, 2022

Temp ( °F °C ) Dew Point ( °F °C ) Humidity (%) Winds ( mph kmh ) Pressure ( in mb ) Visibility ( mi km ) Precip ( " mm )
12:53 am 00:53 Clear 63 17.2 24 -4.4 23 23 N 15 24 30.24 1024 10 16 0.00 0.00
1:53 am 01:53 Clear 62 16.7 25 -3.9 24 24 NNW 13 20 30.25 1024 10 16 0.00 0.00
2:53 am 02:53 Clear 60 15.6 26 -3.3 27 27 NNW 12 19 30.26 1025 10 16 0.00 0.00
3:53 am 03:53 Clear 59 15 27 -2.8 29 29 NNW 16 26 30.24 1024 10 16 0.00 0.00
4:53 am 04:53 Clear 59 15 28 -2.2 31 31 NNW 15 24 30.25 1025 10 16 0.00 0.00
5:53 am 05:53 Clear 57 13.9 28 -2.2 33 33 NNW 12 19 30.28 1025 10 16 0.00 0.00
6:53 am 06:53 Sunny 57 13.9 29 -1.7 34 34 N 14 22 30.30 1026 10 16 0.00 0.00
7:53 am 07:53 Sunny 59 15 29 -1.7 32 32 N 12 19 30.32 1027 10 16 0.00 0.00
8:53 am 08:53 Sunny 62 16.7 30 -1.1 30 30 NNW 16 26 30.33 1027 10 16 0.00 0.00
9:53 am 09:53 Sunny 66 18.9 30 -1.1 26 26 NNW 18 30 30.32 1027 10 16 0.00 0.00
10:53 am 10:53 Sunny 69 20.6 29 -1.7 22 22 NNW 12 19 30.30 1026 10 16 0.00 0.00
11:53 am 11:53 Sunny 70 21.1 28 -2.2 21 21 Calm 30.26 1025 10 16 0.00 0.00
12:53 pm 12:53 Sunny 72 22.2 28 -2.2 19 19 undefined N/A 30.22 1024 10 16 0.00 0.00
1:53 pm 13:53 Sunny 73 22.8 28 -2.2 19 19 ENE 8 13 30.20 1023 10 16 0.00 0.00
2:53 pm 14:53 Sunny 75 23.9 27 -2.8 17 17 NW 5 7 30.17 1022 10 16 0.00 0.00
3:53 pm 15:53 Sunny 76 24.4 26 -3.3 16 16 NW 15 24 30.16 1021 10 16 0.00 0.00
4:53 pm 16:53 Sunny 74 23.3 26 -3.3 17 17 NNW 7 11 30.14 1021 10 16 0.00 0.00
5:53 pm 17:53 Clear 69 20.6 25 -3.9 19 19 Calm 30.15 1021 10 16 0.00 0.00
6:53 pm 18:53 Clear 68 20 26 -3.3 21 21 NNE 9 15 30.15 1021 10 16 0.00 0.00
7:53 pm 19:53 Clear 66 18.9 26 -3.3 22 22 NNW 8 13 30.14 1021 10 16 0.00 0.00
8:53 pm 20:53 Clear 64 17.8 25 -3.9 23 23 NNW 8 13 30.16 1021 10 16 0.00 0.00
9:53 pm 21:53 Clear 64 17.8 25 -3.9 23 23 N 13 20 30.16 1021 10 16 0.00 0.00
10:53 pm 22:53 Clear 63 17.2 26 -3.3 25 25 NW 14 22 30.15 1021 10 16 0.00 0.00
11:53 pm 23:53 Clear 63 17.2 26 -3.3 25 25 NNW 12 19 30.15 1021 10 16 0.00 0.00

Powered by AerisWeather